{"data":{"norad_id":65244,"epoch":"2026-09-20T13:31:00.209568Z","epoch_age_seconds":112039,"freshness":"FRESH","line1":"1 65244U 25179K   26263.56319687  .00011776  00000+0  36651-3 0  9994","line2":"2 65244  97.2833 302.9021 0002145  84.2868 275.8619 15.33445206 61389","mean_motion":15.33445206,"eccentricity":0.0002145,"inclination_deg":97.2833,"raan_deg":302.9021,"arg_perigee_deg":84.2868,"mean_anomaly_deg":275.8619,"bstar":0.00036651,"rev_number":6138,"period_min":93.906192041661,"perigee_km":464.07459230118,"apogee_km":467.01053083309,"semimajor_km":6843.6795615671,"source":"CELESTRAK","updated_at":"2026-09-21T09:00:35.559512Z"}}